N7NKE Weather Reports


time (UTC)temp
C
wind
direction
speed
KPH
gust
KPH
rain 1hr
cm
rain 24hr
cm
rain mn
cm
humidity
%
barometer
mb
20260503225004 31 303 1.6 3.2 0.00 0.00 0.00 22 1008.1
20260503224504 31 341 1.6 4.8 0.00 0.00 0.00 27 1008.2
20260503224005 31 326 1.6 3.2 0.00 0.00 0.00 25 1008.3
20260503222504 31 57 3.2 4.8 0.00 0.00 0.00 27 1008.5
20260503222005 31 9 1.6 3.2 0.00 0.00 0.00 27 1008.6
20260503221505 31 9 3.2 4.8 0.00 0.00 0.00 26 1008.6
20260503221004 31 11 1.6 3.2 0.00 0.00 0.00 29 1008.8
20260503220504 31 349 3.2 4.8 0.00 0.00 0.00 29 1008.8
20260503220004 31 88 3.2 4.8 0.00 0.00 0.00 29 1008.9
20260503215504 31 357 1.6 4.8 0.00 0.00 0.00 28 1009.0
20260503215004 31 358 3.2 8.0 0.00 0.00 0.00 29 1008.9
20260503214504 31 106 3.2 8.0 0.00 0.00 0.00 30 1009.1
20260503214004 30 70 3.2 11.3 0.00 0.00 0.00 29 1009.1
20260503213504 30 4 1.6 3.2 0.00 0.00 0.00 32 1009.1
20260503213004 30 350 1.6 8.0 0.00 0.00 0.00 31 1009.2
20260503212005 30 73 1.6 3.2 0.00 0.00 0.00 32 1009.3
20260503211504 30 23 1.6 3.2 0.00 0.00 0.00 30 1009.2
20260503211004 30 64 3.2 8.0 0.00 0.00 0.00 29 1009.3
20260503210005 30 10 3.2 8.0 0.00 0.00 0.00 33 1009.5
20260503205004 30 332 4.8 8.0 0.00 0.00 0.00 35 1009.6
20260503204504 30 39 3.2 9.7 0.00 0.00 0.00 34 1009.6
20260503204005 29 18 3.2 9.7 0.00 0.00 0.00 33 1009.6
20260503203504 29 19 3.2 4.8 0.00 0.00 0.00 34 1009.8
20260503203004 30 1 1.6 4.8 0.00 0.00 0.00 33 1009.8
20260503202505 29 41 3.2 8.0 0.00 0.00 0.00 34 1009.9
20260503202005 29 0 3.2 4.8 0.00 0.00 0.00 34 1010.0
20260503201504 29 45 1.6 3.2 0.00 0.00 0.00 33 1010.0
20260503201004 29 320 1.6 9.7 0.00 0.00 0.00 35 1010.1
20260503193005 28 60 3.2 4.8 0.00 0.00 0.00 38 1010.5
20260503192504 28 63 3.2 4.8 0.00 0.00 0.00 39 1010.6
20260503191504 27 344 1.6 4.8 0.00 0.00 0.00 42 1010.6
20260503191004 27 56 3.2 8.0 0.00 0.00 0.00 45 1010.7
20260503190005 27 15 3.2 8.0 0.00 0.00 0.00 44 1010.7
20260503185505 27 6 4.8 8.0 0.00 0.00 0.00 48 1010.8
20260503185005 27 58 1.6 4.8 0.00 0.00 0.00 46 1010.8
20260503184504 27 74 3.2 3.2 0.00 0.00 0.00 50 1010.8
20260503184004 27 56 3.2 4.8 0.00 0.00 0.00 53 1010.8
20260503183504 26 83 3.2 4.8 0.00 0.00 0.00 53 1010.8
20260503182505 25 29 1.6 4.8 0.00 0.00 0.00 56 1011.0
20260503182006 25 51 1.6 3.2 0.00 0.00 0.00 55 1011.0
20260503181505 25 74 3.2 4.8 0.00 0.00 0.00 59 1011.0
20260503181004 25 89 3.2 4.8 0.00 0.00 0.00 56 1011.0
20260503180504 25 82 3.2 4.8 0.00 0.00 0.00 59 1011.1
20260503180005 25 85 3.2 4.8 0.00 0.00 0.00 60 1011.1
20260503175504 24 91 1.6 8.0 0.00 0.00 0.00 60 1011.1
20260503175004 24 352 1.6 4.8 0.00 0.00 0.00 60 1011.2
20260503174505 24 74 1.6 4.8 0.00 0.00 0.00 61 1011.2
20260503174004 24 87 3.2 4.8 0.00 0.00 0.00 60 1011.3
20260503173504 23 73 3.2 4.8 0.00 0.00 0.00 60 1011.3
20260503173004 23 42 1.6 4.8 0.00 0.00 0.00 62 1011.3
20260503172505 23 96 3.2 8.0 0.00 0.00 0.00 63 1011.3
20260503172005 23 60 1.6 4.8 0.00 0.00 0.00 64 1011.3
20260503171004 22 97 3.2 8.0 0.00 0.00 0.00 66 1011.4
20260503170504 22 65 1.6 4.8 0.00 0.00 0.00 66 1011.5
20260503151006 13 83 1.6 3.2 0.00 0.00 0.00 90 1012.0
20260503150505 13 83 3.2 3.2 0.00 0.00 0.00 90 1012.0
20260503131005 11 202 1.6 3.2 0.00 0.00 0.00 91 1011.6
20260503130505 11 202 1.6 3.2 0.00 0.00 0.00 91 1011.5
20260503110506 11 141 0.0 0.0 0.00 0.00 0.00 90 1012.1
20260503081005 13 309 0.0 1.6 0.00 0.00 0.00 88 1012.4
20260503080505 13 309 0.0 3.2 0.00 0.00 0.00 88 1012.4
20260503072506 13 251 1.6 3.2 0.00 0.00 0.00 87 1012.5
20260503072005 14 198 3.2 3.2 0.00 0.00 0.00 87 1012.5
20260503071506 14 192 1.6 1.6 0.00 0.00 0.00 86 1012.5
20260503071006 14 192 0.0 3.2 0.00 0.00 0.00 86 1012.4
20260503070505 14 192 1.6 1.6 0.00 0.00 0.00 86 1012.4
20260503055005 16 353 6.4 9.7 0.00 0.00 0.00 83 1012.1
20260503054505 16 333 4.8 8.0 0.00 0.00 0.00 83 1012.2
20260503053506 16 17 1.6 3.2 0.00 0.00 0.00 81 1012.5
20260503053005 17 190 0.0 3.2 0.00 0.00 0.00 79 1012.5
20260503052506 17 190 0.0 3.2 0.00 0.00 0.00 79 1012.4
20260503052005 17 58 1.6 3.2 0.00 0.00 0.00 79 1012.4
20260503051505 17 331 3.2 4.8 0.00 0.00 0.00 79 1012.3
20260503050505 17 333 4.8 8.0 0.00 0.00 0.00 80 1012.5
20260503050006 17 326 3.2 4.8 0.00 0.00 0.00 79 1012.6
20260503045505 17 318 3.2 4.8 0.00 0.00 0.00 79 1012.6
20260503045006 17 338 4.8 9.7 0.00 0.00 0.00 80 1012.7
20260503044505 17 327 4.8 8.0 0.00 0.00 0.00 80 1012.8
20260503044005 17 346 4.8 8.0 0.00 0.00 0.00 80 1012.7
20260503043505 17 348 4.8 9.7 0.00 0.00 0.00 79 1012.7
20260503043005 17 340 4.8 9.7 0.00 0.00 0.00 78 1012.6
20260503042505 17 323 1.6 3.2 0.00 0.00 0.00 78 1012.7
20260503042005 17 264 3.2 8.0 0.00 0.00 0.00 78 1012.7
20260503041505 17 335 4.8 11.3 0.00 0.00 0.00 78 1012.6
20260503041005 17 336 8.0 12.9 0.00 0.00 0.00 78 1012.3
20260503040505 17 334 9.7 12.9 0.00 0.00 0.00 78 1012.4
20260503040005 17 343 4.8 8.0 0.00 0.00 0.00 77 1012.5
20260503035505 17 337 4.8 8.0 0.00 0.00 0.00 76 1012.3
20260503035006 17 315 1.6 3.2 0.00 0.00 0.00 75 1012.2
20260503034505 17 283 1.6 3.2 0.00 0.00 0.00 74 1012.2
20260503034006 18 271 3.2 4.8 0.00 0.00 0.00 74 1012.2
20260503033506 18 283 0.0 3.2 0.00 0.00 0.00 73 1012.2
20260503033007 18 236 6.4 12.9 0.00 0.00 0.00 73 1012.1
20260503032505 18 195 4.8 9.7 0.00 0.00 0.00 73 1012.0
20260503032005 18 240 9.7 19.3 0.00 0.00 0.00 72 1012.0
20260503031505 18 203 12.9 22.5 0.00 0.00 0.00 72 1012.1
20260503030505 18 206 11.3 19.3 0.00 0.00 0.00 72 1012.2
20260503030005 18 200 9.7 19.3 0.00 0.00 0.00 72 1012.1
20260503025505 18 207 9.7 16.1 0.00 0.00 0.00 72 1012.1
20260503025005 18 299 8.0 19.3 0.00 0.00 0.00 72 1012.1
20260503024005 19 203 14.5 27.4 0.00 0.00 0.00 71 1012.2
20260503023505 19 201 14.5 25.7 0.00 0.00 0.00 72 1012.1
20260503023006 20 182 20.9 32.2 0.00 0.00 0.00 71 1012.0
20260503022505 20 196 14.5 32.2 0.00 0.00 0.00 70 1011.9
20260503022005 20 186 11.3 29.0 0.00 0.00 0.00 68 1011.7
20260503021505 20 194 14.5 22.5 0.00 0.00 0.00 68 1011.5
20260503021005 21 179 9.7 16.1 0.00 0.00 0.00 67 1011.2
20260503020505 21 199 9.7 14.5 0.00 0.00 0.00 66 1011.1
20260503015505 21 190 9.7 14.5 0.00 0.00 0.00 64 1011.1
20260503015005 22 155 8.0 12.9 0.00 0.00 0.00 62 1011.0
20260503014505 22 196 4.8 12.9 0.00 0.00 0.00 62 1011.1
20260503014005 22 199 3.2 11.3 0.00 0.00 0.00 62 1011.0
20260503013505 22 170 6.4 12.9 0.00 0.00 0.00 62 1011.1
20260503013006 22 174 6.4 11.3 0.00 0.00 0.00 62 1011.0
20260503012505 22 152 4.8 9.7 0.00 0.00 0.00 61 1010.9
20260503011506 22 129 3.2 8.0 0.00 0.00 0.00 64 1010.9
20260503011006 22 44 0.0 3.2 0.00 0.00 0.00 64 1010.9
20260503010505 22 44 0.0 3.2 0.00 0.00 0.00 64 1010.8
20260503005505 22 77 0.0 3.2 0.00 0.00 0.00 63 1010.8
20260503005005 22 74 1.6 3.2 0.00 0.00 0.00 61 1010.9
20260503004506 22 338 1.6 3.2 0.00 0.00 0.00 64 1010.9
20260503004005 22 320 1.6 3.2 0.00 0.00 0.00 59 1010.8
20260503003504 22 320 0.0 3.2 0.00 0.00 0.00 59 1010.9
20260503003005 22 320 1.6 1.6 0.00 0.00 0.00 59 1010.9
20260503002505 22 288 1.6 3.2 0.00 0.00 0.00 61 1010.9
20260503002005 22 72 1.6 3.2 0.00 0.00 0.00 64 1010.9
20260503001506 22 72 1.6 3.2 0.00 0.00 0.00 65 1010.9
20260503000005 22 6 0.0 3.2 0.00 0.00 0.00 64 1011.1
20260502235505 21 5 1.6 3.2 0.00 0.00 0.00 65 1011.2
20260502234505 21 7 0.0 3.2 0.00 0.00 0.00 65 1011.3
20260502234005 21 7 1.6 1.6 0.00 0.00 0.00 65 1011.4
20260502233005 21 6 1.6 3.2 0.00 0.00 0.00 63 1011.5
20260502232505 21 25 1.6 1.6 0.00 0.00 0.00 62 1011.6
20260502230505 21 75 3.2 4.8 0.00 0.00 0.00 62 1011.9
20260502230005 21 77 1.6 4.8 0.00 0.00 0.00 61 1012.0
20260502225504 21 9 3.2 3.2 0.00 0.00 0.00 63 1012.0